Location: Burgberg
(50.1428°N, 11.0671°E)
Time: 19:39:28
(UTC+00:00)

Cosmos 1340 Rocket - Pass Details

Date: 26 January 2020
Orbit: 530 x 558 km, 81.2° (Epoch: 21 February)

Event Time Altitude Azimuth Distance (km) Brightness Sun altitude
Rises 06:01:59 0° 198° (SSW) 2,663 6.3 -9.1°
Reaches altitude 10° 06:04:08 10° 202° (SSW) 1,777 5.4 -8.8°
Maximum altitude 06:08:01 64° 284° (WNW) 593 2.7 -8.2°
Drops below altitude 10° 06:11:56 10° 7° (N) 1,792 5.3 -7.6°
Sets 06:14:07 0° 10° (N) 2,689 6.2 -7.3°
